Location: Utrecht
(52.0917°N, 5.1178°E)
Time: 02:39:51
(UTC+02:00)

X-37B - Pass Details

Date: 30 June 2021
Orbit: 383 x 392 km, 45.0° (Epoch: 01 July)

Event Time Altitude Azimuth Distance (km) Brightness Sun altitude
Rises 23:43:09 0° 260° (W) 2,259 4.7 -10.3°
Reaches altitude 10° 23:45:48 10° 237° (WSW) 1,402 3.3 -10.5°
Maximum altitude 23:47:44 15° 199° (SSW) 1,131 2.5 -10.7°
Enters shadow 23:48:26 14° 183° (S) 1,170 2.5 -10.7°
